[[{"header":{"parameterUnit":"m.s-1","parameterCategory":1,"la1":30.2991,"la2":30.254,"lo1":-89.0895,"lo2":-89.0444,"dy":0.0017,"dx":0.0017,"nx":28,"ny":28,"refTime":"2024-08-25T09:00:00:Z","depth":0,"parameterNumber":2,"parameterNumberName":"U-component_of_WINDS"},"data":[0,0,0,0,0,0,0,0,0,0,0,0,0,0,0,0,0,0,0,0,0,0,0,0,0,0,0,0,0,0,0,0,0,0,0,0,0,0,0,0,0,0,0,0,0,0,0,0,0,0,0,0,0,0,0,0,0,0,-4.1726,-4.1726,0,-4.1729,-4.1729,-4.1729,-4.1599,-4.1595,-4.1592,-4.1588,-4.1598,-4.1601,-4.1605,0,0,0,0,0,0,0,0,0,0,0,0,0,-4.1618,-4.1621,-4.1726,-4.1726,-4.1726,-4.1729,-4.1729,-4.1729,-4.1599,-4.1595,-4.1591,-4.1587,-4.1597,-4.1601,-4.1605,0,0,0,0,0,0,0,0,0,0,0,0,0,-4.1648,-4.1622,-4.1726,-4.1662,-4.1656,-4.1729,-4.1729,-4.1729,-4.16,-4.1595,-4.159,-4.1585,-4.1595,-4.16,-4.1606,-4.1742,0,0,-4.1622,-4.1624,0,0,0,0,0,0,0,0,-4.1646,-4.1652,-4.1671,-4.1666,-4.166,-4.1658,-4.1694,-4.1733,-4.1601,-4.1622,-4.1588,-4.1582,-4.1623,-4.1625,-4.1637,-4.1742,-4.1743,-4.1622,-4.1625,-4.1627,-4.1629,0,0,0,0,0,0,0,-4.1644,-4.1651,-4.1727,-4.1672,-4.1665,-4.1636,-4.1634,-4.1701,-4.1652,-4.1619,-4.161,-4.1612,-4.1619,-4.1633,-4.1637,-4.1743,-4.1622,-4.1627,-4.163,-4.1632,-4.1964,-4.197,0,0,0,0,0,0,-4.165,-4.165,-4.1727,-4.1727,-4.164,-4.1642,-4.164,-4.1664,-4.165,-4.1643,-4.1616,-4.1606,-4.1626,-4.1631,-4.1636,-4.1797,-4.1627,-4.1632,-4.1635,-4.1958,-4.1965,-4.1972,0,0,0,0,0,0,-4.1648,-4.1658,-4.1727,-4.1686,-4.1693,-4.1649,-4.1677,-4.1667,-4.168,-4.1648,-4.1639,-4.1639,-4.1622,-4.1629,-4.1717,-4.1796,-4.1635,-4.1639,-4.1952,-4.1961,-4.1968,-4.2119,0,0,0,0,0,0,-4.1646,-4.1658,-4.1707,-4.1688,-4.1695,-4.1806,-4.1682,-4.1671,-4.1689,-4.1675,-4.1667,-4.1661,-4.1619,-4.171,-4.1722,-4.18,-4.1644,-4.1945,-4.1956,-4.1966,-4.2107,-4.2132,-4.2153,0,0,0,0,0,-4.1642,-4.175,-4.171,-4.172,-4.1755,-4.181,-4.1814,-4.1762,-4.1696,-4.1746,-4.1726,-4.1661,-4.1785,-4.172,-4.1733,-4.1813,-4.1939,-4.1953,-4.1965,-4.2097,-4.2127,-4.2152,0,0,0,0,0,0,-4.1781,-4.1747,-4.1702,-4.1806,-4.1812,-4.1788,-4.185,-4.1795,-4.1822,-4.1808,-4.1744,-4.1744,-4.1843,-4.1837,-4.1765,-4.1947,-4.1851,-4.1867,-4.1947,-4.1975,-4.1998,-4.1998,-4.1648,0,0,0,0,0,-4.1824,-4.1869,-4.1837,-4.1933,-4.1938,-4.1894,-4.1916,-4.1875,-4.1879,-4.1882,-4.1867,-4.1876,-4.1917,-4.1946,-4.1981,-4.2105,-4.2104,-4.2168,-4.2191,-4.221,-4.2225,-4.2293,-4.2322,-4.2014,-4.2013,-4.2013,0,0,-4.1913,-4.19,-4.1932,-4.196,-4.196,-4.2011,-4.1897,-4.1954,-4.1993,-4.1891,-4.1973,-4.1964,-4.1969,-4.2077,-4.2123,-4.2075,-4.231,-4.2226,-4.2242,-4.2246,-4.231,-4.2339,-4.2365,-4.2022,-4.2021,-4.2019,0,0,-4.2101,-4.2095,-4.2174,-4.2177,-4.2177,-4.2148,-4.2167,-4.2152,-4.2141,-4.2222,-4.2148,-4.2194,-4.2265,-4.2273,-4.2287,-4.2482,-4.2425,-4.2496,-4.2617,-4.2684,-4.2709,-4.273,-4.2802,-4.2829,-4.2511,-4.2511,-4.2512,0,-4.2213,-4.2283,-4.2223,-4.2287,-4.2303,-4.2212,-4.2295,-4.23,-4.2314,-4.2329,-4.2274,-4.2363,-4.2361,-4.247,-4.2518,-4.2531,-4.2554,-4.2497,-4.271,-4.273,-4.275,-4.2818,-4.2845,-4.252,-4.2519,-4.2518,-4.2517,0,-4.2422,-4.2473,-4.2538,-4.2551,-4.2575,-4.2648,-4.2602,-4.2634,-4.2592,-4.257,-4.2656,-4.265,-4.2685,-4.2707,-4.2667,-4.2813,-4.2783,-4.272,-4.2623,-4.2789,-4.2852,-4.2878,-4.2533,-4.253,-4.2527,-4.2525,0,0,-4.2696,-4.2677,-4.2702,-4.2709,-4.2704,-4.2744,-4.2815,-4.2846,-4.2876,-4.289,-4.295,-4.3014,-4.2956,-4.2972,-4.2932,-4.2992,-4.315,-4.2921,-4.2921,-4.2966,-4.3314,-4.3363,-4.3394,-4.3112,-4.3117,-4.312,-4.3314,0,-4.2881,-4.2997,-4.2947,-4.307,-4.3119,-4.3035,-4.3097,-4.3103,-4.3085,-4.3125,-4.3106,-4.3153,-4.3072,-4.3082,-4.3136,-4.3119,-4.322,-4.3105,-4.317,-4.3173,-4.3173,-4.3426,-4.3477,-4.366,-4.3338,-4.3343,-4.3345,0,-4.311,-4.3132,-4.326,-4.3249,-4.3268,-4.3324,-4.3351,-4.339,-4.3397,-4.338,-4.3399,-4.3347,-4.342,-4.3323,-4.3423,-4.3346,-4.3371,-4.3367,-4.3373,-4.3378,-4.327,-4.344,-4.3717,-4.3746,-4.3383,-4.338,-4.3378,0,-4.3301,-4.3363,-4.3447,-4.3455,-4.3444,-4.3487,-4.3485,-4.3485,-4.3509,-4.3534,-4.3549,-4.3583,-4.3602,-4.3631,-4.3592,-4.3524,-4.37,-4.3599,-4.3691,-4.3692,-4.3732,-4.373,-4.4019,-4.3746,-4.3745,-4.3745,-4.3744,0,-4.3513,-4.3595,-4.3533,-4.3586,-4.3677,-4.362,-4.3713,-4.3702,-4.3704,-4.3756,-4.3685,-4.3736,-4.368,-4.3727,-4.3697,-4.3787,-4.3795,-4.3786,-4.3778,-4.3793,-4.3795,-4.3809,-4.3796,-4.3752,-4.375,-4.3749,-4.3748,0,-4.3741,-4.3702,-4.379,-4.3773,-4.377,-4.3839,-4.3825,-4.3875,-4.3853,-4.392,-4.3932,-4.3898,-4.395,-4.3913,-4.3964,-4.3944,-4.4064,-4.4036,-4.4061,-4.4054,-4.4149,-4.4142,-4.4458,-4.4498,-4.4198,-4.4201,-4.4203,0,-4.3879,-4.394,-4.393,-4.3958,-4.396,-4.4007,-4.4031,-4.3978,-4.4007,-4.4021,-4.407,-4.4115,-4.4148,-4.4235,-4.4217,-4.4257,-4.4232,-4.434,-4.4237,-4.4252,-4.4236,-4.4234,-4.4241,-4.4361,-4.4365,-4.4367,-4.437,0,-4.4129,-4.4108,-4.4143,-4.4173,-4.4203,-4.4225,-4.4241,-4.427,-4.4217,-4.4253,-4.4304,-4.433,-4.4383,-4.443,-4.4463,-4.4464,-4.4411,-4.4402,-4.4426,-4.4443,-4.4456,-4.4453,-4.4119,-4.4395,-4.4393,-4.4391,-4.439,-4.4389,-4.4317,-4.4369,-4.437,-4.4413,-4.442,-4.4438,-4.4485,-4.4468,-4.4509,-4.4546,-4.4514,-4.4576,-4.4585,-4.4624,-4.4633,-4.4683,-4.4639,-4.4673,-4.4682,-4.4692,-4.4706,-4.4447,-4.4689,-4.4688,-4.4687,-4.4687,-4.4686,0,-4.4566,-4.4563,-4.4603,-4.4628,-4.4663,-4.4606,-4.4623,-4.4657,-4.4712,-4.4723,-4.4757,-4.4818,-4.4864,-4.4851,-4.4893,-4.4936,-4.4913,-4.4949,-4.4946,-4.4948,-4.4742,-4.4718,-4.4968,-4.4967,-4.4967,-4.4967,-4.4967,-4.4967,-4.4699,-4.4784,-4.4764,-4.4853,-4.485,-4.4909,-4.4924,-4.4941,-4.495,-4.502,-4.5058,-4.5048,-4.5051,-4.5093,-4.5134,-4.5129,-4.5149,-4.5196,-4.5182,-4.499,-4.4962,-4.4936,-4.4913,-4.52,-4.52,-4.5384,-4.5386,-4.5388]},{"header":{"parameterUnit":"m.s-1","parameterCategory":1,"la1":30.2991,"la2":30.254,"lo1":-89.0895,"lo2":-89.0444,"dy":0.0017,"dx":0.0017,"nx":28,"ny":28,"refTime":"2024-08-25T09:00:00:Z","depth":0,"parameterNumber":3,"parameterNumberName":"V-component_of_WINDS"},"data":[0,0,0,0,0,0,0,0,0,0,0,0,0,0,0,0,0,0,0,0,0,0,0,0,0,0,0,0,0,0,0,0,0,0,0,0,0,0,0,0,0,0,0,0,0,0,0,0,0,0,0,0,0,0,0,0,0,0,2.3411,2.3411,0,2.3406,2.3406,2.3406,2.3453,2.3454,2.3456,2.3457,2.3443,2.3442,2.344,0,0,0,0,0,0,0,0,0,0,0,0,0,2.3454,2.3453,2.3411,2.3411,2.3411,2.3406,2.3406,2.3406,2.3453,2.3454,2.3456,2.3458,2.3444,2.3442,2.344,0,0,0,0,0,0,0,0,0,0,0,0,0,2.3441,2.3453,2.3411,2.3434,2.3436,2.3406,2.3406,2.3406,2.3453,2.3455,2.3457,2.3458,2.3444,2.3442,2.344,2.3385,0,0,2.3432,2.3431,0,0,0,0,0,0,0,0,2.3441,2.3439,2.343,2.3432,2.3434,2.3432,2.3416,2.3398,2.3452,2.3446,2.3457,2.3459,2.3437,2.3436,2.343,2.3384,2.3384,2.3432,2.3431,2.343,2.3429,0,0,0,0,0,0,0,2.3442,2.3439,2.3409,2.343,2.3433,2.3442,2.3443,2.3413,2.343,2.3447,2.345,2.3449,2.3439,2.3432,2.343,2.3384,2.3432,2.343,2.3429,2.3428,2.3292,2.329,0,0,0,0,0,0,2.3441,2.344,2.3409,2.3408,2.3443,2.344,2.344,2.3431,2.3431,2.3433,2.3448,2.3452,2.3436,2.3433,2.343,2.3365,2.343,2.3427,2.3426,2.3294,2.3291,2.3289,0,0,0,0,0,0,2.3442,2.3438,2.3409,2.3425,2.3422,2.3437,2.3426,2.343,2.3423,2.3432,2.3434,2.3438,2.3437,2.3433,2.3396,2.3365,2.3426,2.3424,2.3297,2.3293,2.329,2.3234,0,0,0,0,0,0,2.3443,2.3438,2.3418,2.3425,2.3421,2.3377,2.3424,2.3428,2.342,2.3425,2.3423,2.3425,2.3438,2.34,2.3394,2.3363,2.3422,2.3299,2.3295,2.3291,2.3239,2.3229,2.3221,0,0,0,0,0,2.3444,2.3401,2.3417,2.3413,2.3398,2.3375,2.3373,2.3392,2.3417,2.3397,2.3403,2.3425,2.337,2.3396,2.3389,2.3357,2.3301,2.3296,2.3292,2.3242,2.3231,2.3221,0,0,0,0,0,0,2.3387,2.3402,2.342,2.3378,2.3376,2.3383,2.3358,2.3379,2.3367,2.3371,2.3393,2.3392,2.3351,2.3351,2.3379,2.3304,2.334,2.3334,2.3305,2.3294,2.3285,2.3284,2.342,0,0,0,0,0,2.3371,2.3353,2.3367,2.3328,2.3326,2.3342,2.3333,2.3348,2.3345,2.3343,2.3346,2.334,2.3321,2.3308,2.3292,2.3241,2.3239,2.3215,2.3206,2.3199,2.3192,2.3164,2.3152,2.3273,2.3273,2.3273,0,0,2.3334,2.334,2.3327,2.3317,2.3316,2.3296,2.3341,2.3317,2.3301,2.3339,2.3304,2.3306,2.3301,2.3256,2.3237,2.3255,2.3159,2.3193,2.3187,2.3184,2.3157,2.3146,2.3136,2.327,2.327,2.3271,0,0,2.3256,2.3261,2.3229,2.3229,2.3229,2.3241,2.3233,2.3239,2.3242,2.3209,2.3237,2.3218,2.3186,2.318,2.3173,2.3098,2.3117,2.3092,2.3044,2.3016,2.3007,2.2998,2.2968,2.2958,2.3085,2.3085,2.3085,0,2.321,2.3182,2.3209,2.3184,2.3177,2.3215,2.3181,2.3179,2.3172,2.3166,2.3188,2.3149,2.3148,2.3103,2.3085,2.3079,2.3068,2.309,2.3007,2.2998,2.2991,2.2962,2.2951,2.3082,2.3082,2.3083,2.3083,0,2.3124,2.3105,2.3079,2.3075,2.3066,2.3036,2.3056,2.3044,2.3061,2.307,2.3035,2.3036,2.302,2.3012,2.3026,2.2968,2.2979,2.3003,2.3039,2.2975,2.2949,2.2939,2.3077,2.3078,2.3079,2.308,0,0,2.3005,2.302,2.3009,2.3008,2.3013,2.2997,2.297,2.2957,2.2945,2.2941,2.2916,2.289,2.2913,2.2905,2.2921,2.2897,2.2834,2.2924,2.2924,2.2904,2.2767,2.2745,2.2733,2.2849,2.2847,2.2846,2.2766,0,2.2928,2.2883,2.2907,2.2858,2.2839,2.2877,2.2853,2.2852,2.286,2.2844,2.2852,2.2832,2.2866,2.2862,2.284,2.2846,2.2806,2.2853,2.2822,2.2821,2.2819,2.2719,2.2696,2.2621,2.2756,2.2755,2.2753,0,2.283,2.2825,2.2774,2.2784,2.2776,2.2754,2.2745,2.2731,2.273,2.2738,2.2731,2.2753,2.2724,2.2764,2.2723,2.2754,2.2744,2.2746,2.2743,2.2737,2.278,2.2707,2.2597,2.2584,2.2738,2.2739,2.274,0,2.2745,2.2725,2.2693,2.2691,2.2701,2.2685,2.2688,2.269,2.2681,2.2673,2.2667,2.2655,2.2647,2.2636,2.2653,2.2681,2.2609,2.2651,2.2612,2.2611,2.2591,2.2591,2.2474,2.2591,2.2591,2.2591,2.2592,0,2.2653,2.262,2.2655,2.2634,2.2598,2.2626,2.2589,2.2596,2.2598,2.2578,2.261,2.2589,2.2615,2.2597,2.261,2.2573,2.257,2.2573,2.2576,2.2568,2.2567,2.2558,2.2562,2.2588,2.2589,2.259,2.259,0,2.255,2.2572,2.2538,2.2553,2.2556,2.2528,2.2539,2.2519,2.2533,2.2506,2.2502,2.252,2.25,2.2518,2.2498,2.2507,2.2457,2.247,2.2457,2.2459,2.2418,2.242,2.2288,2.2271,2.2402,2.2401,2.24,0,2.2488,2.2463,2.2477,2.2467,2.2469,2.2453,2.2445,2.2473,2.2463,2.2462,2.2442,2.2426,2.2414,2.2381,2.2391,2.2376,2.2386,2.2341,2.2383,2.2376,2.2381,2.238,2.2377,2.233,2.2329,2.2327,2.2326,0,2.2374,2.2387,2.2376,2.2369,2.236,2.2355,2.2353,2.2342,2.2371,2.2358,2.2341,2.2332,2.2314,2.2296,2.2286,2.2286,2.2309,2.2314,2.2304,2.2292,2.2285,2.2285,2.2429,2.2315,2.2316,2.2317,2.2318,2.2318,2.2287,2.2267,2.2273,2.226,2.2262,2.226,2.2242,2.2254,2.2241,2.223,2.2247,2.2224,2.2225,2.2214,2.2212,2.2193,2.2211,2.2197,2.2192,2.2187,2.218,2.2292,2.2191,2.2192,2.2192,2.2192,2.2193,0,2.2171,2.2179,2.2167,2.2164,2.2153,2.2182,2.2181,2.2169,2.215,2.215,2.2139,2.2118,2.2103,2.2113,2.2099,2.2082,2.2092,2.2076,2.2075,2.2075,2.2166,2.2175,2.2068,2.2068,2.2068,2.2068,2.2068,2.2068,2.211,2.2077,2.2092,2.206,2.2067,2.2047,2.2044,2.2041,2.2042,2.2018,2.2006,2.2015,2.2019,2.2006,2.1992,2.1995,2.1987,2.1967,2.1973,2.2057,2.2069,2.208,2.2088,2.1966,2.1966,2.1883,2.1883,2.1882]}]]